ROMMA est une association bénévole à but non lucratif. Votre soutien est indispensable : ADHERER à ROMMA ou FAIRE un DON

Briord - (01, Ain)

Bugey (281 m)   Longitude: 05° 29' 13" E   Latitude: 45° 46' 37" N Station partenaire n°15
 

Détail journalier du     <<     >>

Température Precipitation Humidité Pression Vent Dir Rafale Dir. rafale Ensol.
Heure (°C) (mm) (%) (hPa) (km/h) (km/h) (min)
01:00 20.4078101300---0
02:00 20.8080101303SE0
03:00 20.9079101305NE0
04:00 20.2079101305SO0
05:00 20.7077101302NE0
06:00 22.1072101306NNE0
07:00 20.7080101308S0
08:00 20.3083101302S0
09:00 25.405710133SE18SE50
10:00 26.905210135SE15ESE55
11:00 27.405510133SE15SE60
12:00 29.305110123SE13SE45
13:00 29.704710126ONO21O40
14:00 30.204210113ONO26ONO5
15:00 32.604010113ONO13SSE45
16:00 32.804010092NO15SO30
17:00 31.104610093SSO23ONO15
18:00 28.50541009013ONO0
19:00 26.205910112---21NO0
20:00 22.90.47510103ESE16SE0
21:00 21.40.27510101SE16NE0
22:00 19.60.68610122ESE15ESE0
23:00 18.80.28710111NNE16NE0
minuit 17.80.288101105SE0

Graphique du 06-08-2019

 

Serveur OMMA